Situs Agen Judi Poker Online Uang Asli Server Dewa IDNPlay

Jackpot

Texas Poker Multi Jackpot System

Kini Telah hadir Jackpot SUPER ROYAL FLUSH

Kini Telah hadir Jackpot 2000 (khusus table VIP keatas).

Ikutilah global jackpot yang tersedia di system kami, dengan system jackpot terbaru dan pertama di indonesia, anda dapat membeli jackpot dengan harga 100 rupiah saja dan menangkan hadiahnya hingga puluhan juta rupiah.

Jackpot bukanlah suatu keharusan untuk dibeli, namun kami memberikan suatu fitur tambahan untuk member tercinta dari www.menteripoker.com.

Terdapat tiga pilihan harga jackpot yang bisa anda beli yaitu :100,500,1000 dan 2000(khusus table VIP Keatas) rupiah.

Hadiah dari Multi jackpot system www.menteripoker.com

  1. full house x 10 harga jackpot yang anda beli.
      (contoh:anda membeli 1000 maka:1000 X10 = 10.000)
  2. four of kind x 250 harga jackpot yang anda beli
      (contoh:anda membeli 1000 maka:1000 X250 = 250.000)
  3. Straight flush x 1200
      (contoh:anda membeli 1000 maka:1000 X1200 = 1.200.000)
  4. Royal flush x 10000 harga jackpot yang anda beli
      (contoh:anda membeli 1000 maka:1000 X10000 = 10.000.000)
  5. SUPER ROYAL FLUSH x 30000 harga jackpot yang anda beli
      (contoh:anda membeli 1000 maka:1000 X30000 = 30.000.000)

Kondisi kartu

  1. full house adalah kondisi kartu dimana kartu anda dan kartu tengah dengan total 7 kartu bisa mendapatkan nilai 5 kartu dengan kombinasi 1 tris(three of kind) dan 1 pair, contoh 3 kartu 10 dan 2 kartu 5
  2. Four of kind adalah kondisi kartu dimana kartu anda dan kartu tengah dengan total 7 kartu bisa mendapatkan nilai 5 kartu dengan kombinasi 4 kartu yang sama jumlah dan 1 kartu apapun juga contoh anda mendapatkan 4 buah kartu angka 3 dan 1 kartu apapun.
  3. Staright flush adalah kondisi kartu dimana kartu anda dan kartu tengah dengan total 7 kartu bisa mendapatkan nilai 5 kartu dengan kombinasi seri / staright dengan kembang yang sama contoh : urutan kartu dari angka 5, 6, 7, 8 , 9 10 dengan kembang yg sama misalnya as hati
  4. Royal flush adalah kondisi kartu dimana kartu anda dan kartu tengah dengan total 7 kartu bisa mendapatkan nilai 5 kartu dengan kombinasi seri / staright dengan kembang yang sama tetapi kartu tersebut haruslah dimulai dari 10. contoh 10, Queen, Jack, King dan aces dengan kembang yang sama
  5. Super Royal flush adalah kondisi kartu dimana Kedua kartu anda digabung dengan 3 kartu pertama meja haruslah royal flush. contoh kartu anda 10,Queen kembang sama dan 3 kartu pertama meja adalah Jack, King dan aces dengan kembang yang sama

Demikian adalah penjelasan dari Multi Jackpot www.menteripoker.com terima kasih dan selamat bermain salam hoki dari kami

Texas Poker Jackpot Winner

TOP SUPER ROYAL FLUSH
No.TanggalNamaPriceWin
126/07 16:35NCETMBREMSuper Royal flush6,000,000
226/07 14:34FAJAR233Super Royal flush15,000,000
326/07 12:03D1810KANSuper Royal flush30,000,000
426/07 04:39SALLLSuper Royal flush3,000,000
526/07 03:10SID303Super Royal flush30,000,000
TOP ROYAL FLUSH
No.TanggalNamaPriceWin
127/07 01:25BB118C00Royal flush500,000
227/07 01:06RE_RENT88Royal flush2,000,000
327/07 00:54EL151Royal flush5,000,000
427/07 00:54MAYUBRoyal flush5,000,000
527/07 00:51FITROH1514Royal flush5,000,000
TOP STRAIGHT FLUSH
No.TanggalNamaPriceWin
127/07 01:25VIIBIOStraight Flush1,200,000
227/07 01:24A1ROYAL_IDStraight Flush120,000
327/07 01:22BASTER24Straight Flush600,000
427/07 01:22AKEACHAIStraight Flush1,200,000
527/07 01:21PINK1616Straight Flush120,000
LATEST JACKPOT
No.TanggalNamaPriceWin
127/07 01:27MAYJONGFull House5,000
227/07 01:27FARIZAL11Full House5,000
327/07 01:27AGHA24Four Of A Kind125,000
427/07 01:27ZALYATYFull House5,000
527/07 01:27A65BAECDFull House1,000
627/07 01:27SPMG4Full House2,000
727/07 01:27B1_1NGT0M0Full House2,000
827/07 01:27EBEB1000Full House5,000
927/07 01:27TRANEXS321Full House20,000
1027/07 01:27CANIWINFull House20,000
1127/07 01:27HAFIZ41Full House2,000
1227/07 01:27FVPNDFull House2,000
1327/07 01:27AG_WANFull House5,000
1427/07 01:27SUF88Full House2,000
1527/07 01:27AJAIP8Full House10,000
1627/07 01:27KALEMBOBFull House2,000
1727/07 01:27ROOKI303Full House2,000
1827/07 01:27NOII08Four Of A Kind25,000
1927/07 01:27M4DCUY0IFull House500
2027/07 01:27SH4BUNG1ASFull House1,000
2127/07 01:27AGUSJENONGFull House2,000
2227/07 01:27KAMI889Full House1,000
2327/07 01:27BREG536Full House1,000
2427/07 01:27LEM_07Full House2,000
2527/07 01:27JAENAL15Full House5,000
2627/07 01:27GAISFull House1,000
2727/07 01:27BENTZOOOFull House2,000
2827/07 01:27MACAN_PMSFull House5,000
2927/07 01:27AGUNGASOFull House10,000
3027/07 01:27MEMPENG99Full House2,000
3127/07 01:27TARITARIFull House10,000
3227/07 01:27JHKL00146QFull House5,000
3327/07 01:27BITCH168Full House1,000
3427/07 01:27TAKUTAKFull House5,000
3527/07 01:27SHELAAA_11Full House5,000
3627/07 01:27GUSTAFFRANFull House2,000
3727/07 01:27BUTWIN21Full House2,000
3827/07 01:27CIKRAK1000Full House10,000
3927/07 01:27RAJA_JKPOTFull House10,000
4027/07 01:27LENGONGGFull House5,000
4127/07 01:26AA9AJAFull House10,000
4227/07 01:26ION8G13VG6Full House5,000
4327/07 01:26DWBTN8836Full House10,000
4427/07 01:26JEKY666Full House2,000
4527/07 01:26IJOGAGAHFull House2,000
4627/07 01:26BERKAH_12Full House1,000
4727/07 01:26BOING_747Full House1,000
4827/07 01:26DEWIBLEKFull House500
4927/07 01:26ARDHI330Full House10,000
5027/07 01:26STEMPASFull House10,000

Domino Multi Jackpot System

Ikutilah global jackpot yang tersedia di system kami, dengan system jackpot terbaru dan pertama di indonesia, anda dapat membeli jackpot dengan harga 100 rupiah saja dan menangkan hadiahnya hingga puluhan juta rupiah.

Jackpot bukanlah suatu keharusan untuk dibeli, namun kami memberikan suatu fitur tambahan untuk member tercinta dari www.menteripoker.com.

Terdapat tiga pilihan harga jackpot yang bisa anda beli yaitu :100,500 dan 1000 rupiah.

Hadiah dari Multi jackpot system www.menteripoker.com

  1. Murni Kecil x 50 harga jackpot yang anda beli.
      (contoh:anda membeli 1000 maka:1000 X 50 = 50.000)
  2. Murni Besar x 50 harga jackpot yang anda beli
      (contoh:anda membeli 1000 maka:1000 X 50 = 50.000)
  3. BALAK x 100 harga jackpot yang anda beli
      (contoh:anda membeli 1000 maka:1000 X 100 = 100.000)
  4. ENAM DEWA x 6666 harga jackpot yang anda beli
      (contoh:anda membeli 1000 maka:1000 X 6666 = 6.666.000)

Demikian adalah penjelasan dari Multi Jackpot www.menteripoker.com terima kasih dan selamat bermain salam hoki dari kami

Domino Jackpot Winner

TOP ENAM DEWA
No.TanggalNamaPriceWin
126/07 23:48W6ZNY10Z30murni enam666,600
226/07 23:45CILOK159murni enam666,600
326/07 19:47ASDILLmurni enam6,666,000
426/07 19:46ZEKOMR123murni enam3,333,000
526/07 17:56JACK320murni enam3,333,000
TOP BALAK
No.TanggalNamaPriceWin
127/07 01:26RAJOCOPETbalak50,000
227/07 01:25BAKRIBONE7balak100,000
327/07 01:25BAJA129balak10,000
427/07 01:25ARFIN99balak100,000
527/07 01:24BEBEC98balak100,000
LATEST JACKPOT
No.TanggalNamaPriceWin
127/07 01:27ABDULLAHCCmurni besar5,000
227/07 01:27AQURAT99murni besar5,000
327/07 01:26RAJOCOPETbalak50,000
427/07 01:25QIPE27murni besar50,000
527/07 01:25BAKRIBONE7balak100,000
627/07 01:25NYENGLEUD9murni besar50,000
727/07 01:25BAJA129balak10,000
827/07 01:25TEYZ99murni besar25,000
927/07 01:25ARFIN99balak100,000
1027/07 01:25SALAMEmurni besar5,000
1127/07 01:25DC4F127Cmurni besar5,000
1227/07 01:25VALDO017murni besar50,000
1327/07 01:24EDANEQIUmurni besar50,000
1427/07 01:24BEBEC98balak100,000
1527/07 01:23ELVARETA27murni besar50,000
1627/07 01:22WD170677murni kecil50,000
1727/07 01:22ANDESTA88murni kecil50,000
1827/07 01:21KOWDOKmurni besar50,000
1927/07 01:20TYTINmurni kecil25,000
2027/07 01:20LIEKWIEbalak10,000
2127/07 01:19REY168balak100,000
2227/07 01:18VIKI450murni kecil25,000
2327/07 01:18NONIEK88murni besar5,000
2427/07 01:18Z4KIMIRZmurni besar25,000
2527/07 01:18CELANA99murni besar50,000
2627/07 01:18NEZmurni besar25,000
2727/07 01:18BOZJES66murni besar50,000
2827/07 01:18CETHANYUbalak50,000
2927/07 01:17BTPN6641murni kecil25,000
3027/07 01:17TEGARQQmurni besar50,000
3127/07 01:16BEJOSS57murni besar5,000
3227/07 01:16SMPK02murni kecil25,000
3327/07 01:16A100JTmurni kecil25,000
3427/07 01:16JOSUA21murni besar25,000
3527/07 01:16MEDS77murni kecil5,000
3627/07 01:15BOKIR5758murni besar50,000
3727/07 01:15HEASmurni besar25,000
3827/07 01:15DHEDEN14murni besar5,000
3927/07 01:15QQAPRIYANImurni kecil50,000
4027/07 01:13THONKZ28murni besar5,000
4127/07 01:13OZIL1391murni besar5,000
4227/07 01:13MELKYBRO12murni besar25,000
4327/07 01:13BA_SAHmurni besar5,000
4427/07 01:12LUXYPOK99murni kecil5,000
4527/07 01:12RYTA368murni kecil5,000
4627/07 01:12ABENKDNUT1murni kecil50,000
4727/07 01:12V2DPUHQTY1balak50,000
4827/07 01:11WEWEN198murni kecil5,000
4927/07 01:10OOMBROmurni kecil50,000
5027/07 01:10BUJANGAN45murni besar5,000

Ceme Multi Jackpot System

Jackpot dilihat dari gabungan kartu pemain dengan kartu bandar. Bandar harus membeli jackpot sebanyak jumlah player yang sedang duduk. Sebagai contoh bila terdapat 3 pemain duduk bermain, dan bandar memutuskan untuk membeli jackpot Rp 1.000, maka pada periode tersebut bandar akan membeli jackpot sebanyak 3xRp1.000 = Rp3.000.

Jackpot bukanlah suatu keharusan untuk dibeli, namun kami memberikan suatu fitur tambahan untuk member tercinta dari www.menteripoker.com.

Terdapat tiga pilihan harga jackpot yang bisa anda beli yaitu :100,500 dan 1000 rupiah.

Hadiah dari Multi jackpot system www.menteripoker.com

  1. Murni Kecil x 50 harga jackpot yang anda beli.
      (contoh:anda membeli 1000 maka:1000 X 50 = 50.000)
  2. Murni Besar x 50 harga jackpot yang anda beli
      (contoh:anda membeli 1000 maka:1000 X 50 = 50.000)
  3. BALAK x 200 harga jackpot yang anda beli
      (contoh:anda membeli 1000 maka:1000 X 200 = 200.000)
  4. ENAM DEWA x 6666 harga jackpot yang anda beli
      (contoh:anda membeli 1000 maka:1000 X 6666 = 6.666.000)

Demikian adalah penjelasan dari Multi Jackpot www.menteripoker.com terima kasih dan selamat bermain salam hoki dari kami

Ceme Jackpot Winner

TOP ENAM DEWA
No.TanggalNamaPriceWin
127/07 01:15MILDREDmurni enam6,666,000
227/07 01:08KAMARE4murni enam3,333,000
327/07 01:08GANDO80murni enam6,666,000
427/07 00:20JIEM43murni enam6,666,000
527/07 00:20YIFIKA20murni enam6,666,000
TOP BALAK
No.TanggalNamaPriceWin
127/07 01:27KAMARE4balak100,000
227/07 01:26S4R4H21balak200,000
327/07 01:26ZOENK21balak100,000
427/07 01:26MISNIDARbalak200,000
527/07 01:26ANESS99balak200,000
LATEST JACKPOT
No.TanggalNamaPriceWin
127/07 01:27KAMARE4balak100,000
227/07 01:27DODORES1murni kecil50,000
327/07 01:27KIKI356murni kecil50,000
427/07 01:27SUNKIST420murni kecil25,000
527/07 01:27MRTRAP21murni besar25,000
627/07 01:26UNTUNG700murni besar50,000
727/07 01:26S4R4H21balak200,000
827/07 01:26ZOENK21balak100,000
927/07 01:26MARTON999murni kecil50,000
1027/07 01:26BOSYANSENmurni kecil50,000
1127/07 01:26KARDO378murni kecil25,000
1227/07 01:26SANGDAREHmurni kecil50,000
1327/07 01:26WITOYOmurni kecil50,000
1427/07 01:26MISNIDARbalak200,000
1527/07 01:26ANESS99balak200,000
1627/07 01:26PUTUN31murni besar50,000
1727/07 01:26GESMOT88murni besar5,000
1827/07 01:26JOKO13murni kecil25,000
1927/07 01:26MEN4NG85murni besar25,000
2027/07 01:25MZAIDI8888murni kecil5,000
2127/07 01:25SONDOL27murni kecil50,000
2227/07 01:25SHOL99murni kecil5,000
2327/07 01:25JUFRY89murni kecil5,000
2427/07 01:25DJATImurni besar25,000
2527/07 01:25HERNIAWATImurni kecil50,000
2627/07 01:25CBYESSSmurni kecil50,000
2727/07 01:25PIKRYYmurni besar25,000
2827/07 01:25GGNET_murni kecil50,000
2927/07 01:25TASNIM11murni kecil5,000
3027/07 01:25RIOJANGILmurni kecil25,000
3127/07 01:25LALUDHIKAmurni kecil50,000
3227/07 01:25CIRARO16murni kecil50,000
3327/07 01:25KSU2RV695Fmurni kecil25,000
3427/07 01:25PRABOTANmurni kecil50,000
3527/07 01:25AFCEKmurni kecil50,000
3627/07 01:25LAM_HOT22murni kecil25,000
3727/07 01:25BENY1973murni kecil50,000
3827/07 01:25H4JIEmurni kecil50,000
3927/07 01:25DWBTRKOZ78balak20,000
4027/07 01:25ABABAHRULmurni kecil50,000
4127/07 01:25JONYY866murni kecil5,000
4227/07 01:24DN4DADINDAmurni besar50,000
4327/07 01:24PL1M0murni besar5,000
4427/07 01:24CRIZZTALAZmurni kecil25,000
4527/07 01:24GGNET_murni kecil50,000
4627/07 01:24DELLY03murni kecil25,000
4727/07 01:24KIKUK24murni besar25,000
4827/07 01:24COMAKER30murni besar5,000
4927/07 01:24SEMXXXmurni kecil25,000
5027/07 01:24THEBADmurni besar50,000